Saint-Etienne Boutheon, France

7:33 PM CET on February 07, 2016 (GMT +0100)
Boutheon

Weather History for LFMH - November, 2012

Change the Weather History Date:

Wednesday, November 14, 2012

  Actual Average Record
Temperature  
Mean Temperature 48 °F -  
Max Temperature 59 °F 46 °F 64 °F (2006)
Min Temperature 37 °F 35 °F 30 °F (2008)
Degree Days  
Heating Degree Days 17    
Moisture  
Dew Point 39 °F    
Average Humidity 77    
Maximum Humidity 87    
Minimum Humidity 55    
Precipitation  
Precipitation 0.00 in - - ()
Sea Level Pressure  
Sea Level Pressure 30.23 in    
Wind  
Wind Speed 4 mph ()    
Max Wind Speed 8 mph    
Max Gust Speed -    
Visibility 4.9 miles    
Events      
Averages and records for this station are not official NWS values.
T = Trace of Precipitation, MM = Missing Value Source: Averaged Metar Reports

Daily Weather History Graph

Daily Weather History Graph

Search for Another Location

Airport or City:

Trip Planner

Search our weather history database for the weather conditions in past years. The results will help you decide how hot, cold, wet, or windy it might be!

Date:

Astronomy

Nov. 14, 2012 Rise Set
Actual Time 7:40 AM CET 5:13 PM CET
Civil Twilight 7:08 AM CET 5:45 PM CET
Nautical Twilight 6:32 AM CET 6:21 PM CET
Astronomical Twilight 5:57 AM CET 6:56 PM CET
Moon 8:14 AM CET (11/14) 5:43 PM CET (11/14)
Length of Visible Light 10h 36m
Length of Day
9h 32m
New Moon, 0% of the Moon is Illuminated
Nov 14
New Moon
Nov 20
First Quarter
Nov 28
Full
Dec 6
Last Quarter
Dec 13
New

Hourly Weather History & Observations

Time (CET) Temp. Windchill Dew Point Humidity Pressure Visibility Wind Dir Wind Speed Gust Speed Precip Events Conditions
12:00 AM 41.0 °F 37.1 °F 35.6 °F 81% 30.33 in 5.6 mi South 5.8 mph - N/A   Overcast
12:30 AM 41.0 °F 38.0 °F 35.6 °F 81% 30.33 in 5.6 mi SSW 4.6 mph - N/A   Overcast
1:00 AM 41.0 °F 37.1 °F 35.6 °F 81% 30.30 in 6.2 mi SSW 5.8 mph - N/A   Overcast
1:30 AM 41.0 °F 38.0 °F 35.6 °F 81% 30.30 in 6.2 mi SSW 4.6 mph - N/A   Overcast
2:00 AM 41.0 °F 37.1 °F 35.6 °F 81% 30.30 in 6.2 mi SSW 5.8 mph - N/A   Overcast
2:30 AM 41.0 °F 37.1 °F 35.6 °F 81% 30.30 in 6.2 mi SSW 5.8 mph - N/A   Overcast
3:00 AM 41.0 °F 38.0 °F 35.6 °F 81% 30.27 in 6.2 mi SSW 4.6 mph - N/A   Overcast
3:30 AM 39.2 °F 34.2 °F 35.6 °F 87% 30.27 in 5.6 mi South 6.9 mph - N/A   Overcast
4:00 AM 39.2 °F 35.0 °F 35.6 °F 87% 30.27 in 5.6 mi SSE 5.8 mph - N/A   Overcast
4:30 AM 39.2 °F 34.2 °F 33.8 °F 81% 30.27 in 6.2 mi SSE 6.9 mph - N/A   Scattered Clouds
5:00 AM 37.4 °F 32.8 °F 33.8 °F 87% 30.27 in 6.2 mi South 5.8 mph - N/A   Unknown
5:30 AM 37.4 °F 33.8 °F 33.8 °F 87% 30.27 in 6.2 mi SSE 4.6 mph - N/A   Unknown
6:00 AM 37.4 °F 33.8 °F 33.8 °F 87% 30.24 in - SE 4.6 mph - N/A   Clear
6:30 AM 39.2 °F 33.6 °F 35.6 °F 87% 30.24 in - SE 8.1 mph - N/A   Clear
7:00 AM 37.4 °F 31.4 °F 33.8 °F 87% 30.24 in - SSE 8.1 mph - N/A   Clear
7:30 AM 37.4 °F 32.8 °F 33.8 °F 87% 30.24 in 6.2 mi South 5.8 mph - N/A   Partly Cloudy
8:00 AM 37.4 °F 32.8 °F 33.8 °F 87% 30.27 in 6.2 mi SSE 5.8 mph - N/A   Partly Cloudy
8:30 AM 37.4 °F - 33.8 °F 87% 30.27 in - Variable 2.3 mph - N/A   Clear
9:00 AM 39.2 °F - 35.6 °F 87% 30.27 in - Variable 2.3 mph - N/A   Clear
9:30 AM 41.0 °F - 37.4 °F 87% 30.24 in - Variable 2.3 mph - N/A   Clear
10:00 AM 46.4 °F 45.2 °F 37.4 °F 71% 30.24 in - Variable 3.5 mph - N/A   Clear
10:30 AM 48.2 °F - 39.2 °F 71% 30.24 in - South 6.9 mph - N/A   Clear
11:00 AM 50.0 °F - 41.0 °F 71% 30.24 in - SSE 6.9 mph - N/A   Clear
11:30 AM 53.6 °F - 41.0 °F 62% 30.24 in - Variable 3.5 mph - N/A   Clear
12:00 PM 53.6 °F - 41.0 °F 62% 30.21 in - Variable 2.3 mph - N/A   Clear
12:30 PM 55.4 °F - 41.0 °F 58% 30.21 in - Variable 3.5 mph - N/A   Clear
1:00 PM 55.4 °F - 41.0 °F 58% 30.21 in - Variable 3.5 mph - N/A   Clear
1:30 PM 57.2 °F - 41.0 °F 55% 30.18 in - WNW 4.6 mph - N/A   Clear
2:00 PM 55.4 °F - 42.8 °F 63% 30.18 in - NW 3.5 mph - N/A   Clear
2:30 PM 55.4 °F - 42.8 °F 63% 30.18 in - Variable 3.5 mph - N/A   Clear
3:00 PM 57.2 °F - 42.8 °F 59% 30.18 in - Variable 2.3 mph - N/A   Clear
3:30 PM 59.0 °F - 44.6 °F 59% 30.18 in - Variable 2.3 mph - N/A   Clear
4:00 PM 57.2 °F - 44.6 °F 63% 30.18 in - Calm Calm - N/A   Clear
4:30 PM 57.2 °F - 44.6 °F 63% 30.18 in - Variable 1.2 mph - N/A   Clear
5:00 PM 55.4 °F - 42.8 °F 63% 30.18 in - North 2.3 mph - N/A   Clear
5:30 PM 51.8 °F - 42.8 °F 71% 30.21 in - SSE 3.5 mph - N/A   Clear
6:00 PM 50.0 °F - 41.0 °F 71% 30.21 in 5.6 mi SSE 4.6 mph - N/A   Unknown
6:30 PM 48.2 °F - 41.0 °F 76% 30.21 in 4.3 mi SSE 5.8 mph - N/A   Unknown
7:00 PM 48.2 °F - 41.0 °F 76% 30.21 in 3.7 mi SSE 5.8 mph - N/A   Unknown
7:30 PM 46.4 °F 43.5 °F 41.0 °F 81% 30.21 in 3.7 mi SSE 5.8 mph - N/A   Unknown
8:00 PM 46.4 °F 43.5 °F 41.0 °F 81% 30.21 in 3.7 mi SE 5.8 mph - N/A   Unknown
8:30 PM 44.6 °F 40.7 °F 39.2 °F 81% 30.21 in 3.7 mi SSE 6.9 mph - N/A   Unknown
9:00 PM 44.6 °F 42.2 °F 39.2 °F 81% 30.21 in 3.1 mi SSE 4.6 mph - N/A   Mist
9:30 PM 42.8 °F 41.1 °F 39.2 °F 87% 30.21 in - SSE 3.5 mph - N/A   Mist
10:00 PM 42.8 °F - 39.2 °F 87% 30.21 in 3.1 mi SSE 2.3 mph - N/A   Mist
10:30 PM 42.8 °F - 39.2 °F 87% 30.21 in - Calm Calm - N/A   Mist
11:00 PM 42.8 °F - 39.2 °F 87% 30.21 in 1.2 mi Variable 1.2 mph - N/A   Mist
11:30 PM 42.8 °F - 39.2 °F 87% 30.21 in 1.1 mi Calm Calm - N/A   Mist